星链-32696 (STARLINK-32696)

导读

STARLINK-32696是美国太空探索技术公司(SpaceX)星链卫星互联网项目的成员,于2024年12月13日由美国发射入轨。星链项目旨在构建覆盖全球的低轨卫星互联网星座,该卫星承担着为全球偏远地区、海洋空域等提供宽带网络接入服务的任务,进一步扩充了星链星座的服务覆盖能力与通信容量。

Basic Information
目录编号:
62310
目录名称:
STARLINK-32696
国际标识:
2024-239K
轨道中心:
EARTH
卫星名称:
星链-32696
卫星全名:
星链-32696 (STARLINK-32696)
卫星状态:
在轨 (已飞行631 天)
发射日期:
2024-12-13 UTC
国别 :
美国 (US)
星等 :
--
Orbit Information
数据来源 国际轨道数据
星历时间: 2026-09-05T06:36:11+0800
9小时前
查看轨道信息
半长轴: 6840.825km
偏心率: 0.0001146
轨道倾角: 53.159°
近地点辐角 89.516°
升交点赤经 78.094°
平近点角 270.597°
近地点: 461.904km
远地点: 463.472km
周期: 93.847分钟
每日圈数: 15.344054
Detailed Information
固有亮度:
5
最大亮度:
2.5
卫星平台:
Starlink V1.0
覆盖范围:
全球
运营商:
太空探索技术公司
运营商所在国:
美国
制造商(研发单位):
太空探索技术公司
制造商所在国:
美国
使用方式:
暂无
Satellite Introduction
Starlink 计划是 SpaceX 推出的全球卫星互联网项目,通过发射低轨道卫星,为全球尤其是偏远地区提供高速、低延迟的互联网服务。自 2019 年起,Starlink 已部署数千颗卫星,旨在缩小全球数字鸿沟,推动互联网普及。该项目还为军事、航空等行业提供通信支持,带来广泛经济效益。
2D Orbit Map
3D Orbit Map
Orbit Altitude Analysis Chart
Orbit Inclination Analysis Chart
Orbit Comprehensive Analysis Chart
View Comprehensive Chart
Conjunction Data List
Event ID Objects TCA Miss Dist (km) Collision Risk Probability Collision Risk Index (CRI) Action
CDM_260907-023406-190106-231021
OBJECT H (61901)
2026-09-07T
02:34:45+0000
1.086 km
极远距离
1.748383E-5 中风险 0.6
CDM_260907-113703-279106-231021
SEEDS (32791)
2026-09-07T
11:37:20+0000
1.370 km
极远距离
9.077227E-6 低风险 0.54
CDM_260907-122403-279106-231021
SEEDS (32791)
2026-09-07T
12:24:16+0000
1.527 km
极远距离
6.323234E-6 低风险 0.51
CDM_260907-181406-044706-231021
2026-09-07T
18:14:20+0000
1.461 km
极远距离
2.222127E-6 低风险 0.42
CDM_260907-164006-044706-231021
2026-09-07T
16:40:33+0000
2.415 km
极远距离
6.68089E-7 极低风险 0.31
CDM_260907-190106-044706-231021
2026-09-07T
19:01:14+0000
2.918 km
极远距离
5.173935E-7 极低风险 0.29
CDM_260907-010105-328706-231021
2026-09-07T
01:01:36+0000
2.824 km
极远距离
3.684818E-7 极低风险 0.26